Flag for Canada Weather past 2 weeks in Vaughan, Ontario, Canada

Now
32 °F

Scattered clouds.


Feels Like: 32 °F
Forecast: N/A
Wind: No wind

Location: Toronto Buttonville

Current Time: Dec 20, 2014 at 3:57:32 PM

Latest Report: Dec 20, 2014 at 3:00 PM


Visibility: 15 mi

Pressure: 30.27 "Hg

Humidity: 51%

Dew point: 16 °F

Location of VaughanLocation

Historic Weather in Vaughan — Graph

°F

Vaughan temperature yesterday

Maximum temperature yesterday: 28 °F (at 12:00 PM)
Minimum temperature yesterday: 19 °F (at 7:00 AM)
Average temperature yesterday: 25 °F

Past Weeks' High & Low Weather Summary

 TemperatureHumidityPressure
High39 °F (Dec 6, 1:00 PM)100% (Dec 9, 8:00 AM)30.81 "Hg (Dec 9, 8:00 AM)
Low16 °F (Dec 20, 8:00 AM)40% (Dec 7, 2:00 PM)29.74 "Hg (Dec 16, 2:00 PM)
Average31 °F82%30.13 "Hg
* Reported Dec 5 3:00 PM — Dec 20 3:00 PM, Vaughan, Weather by CustomWeather, © 2014

Note: Actual official high and low records may vary slightly from our data, if they occured in-between our weather recording intervals... More about our weather records

Advertising

Vaughan weather history for previous 24 hours

 ConditionsComfort  
Time TempWeatherWind HumidityBarometerVisibility
3:00 PM
Dec 20
32 °FScattered clouds.No wind51%30.27 "Hg15 mi
2:00 PM32 °FPassing clouds.No wind55%30.27 "Hg15 mi
1:00 PM32 °FPassing clouds.5 mph51%30.28 "Hg15 mi
12:00 PM28 °FPassing clouds.2 mph64%30.30 "Hg15 mi
11:00 AM28 °FPassing clouds.2 mph64%30.32 "Hg15 mi
10:00 AM25 °FPassing clouds.2 mph74%30.33 "Hg15 mi
9:00 AM21 °FScattered clouds.2 mph86%30.33 "Hg15 mi
8:00 AM16 °FPassing clouds.2 mph93%30.32 "Hg15 mi
7:00 AM18 °FPassing clouds.3 mph86%30.33 "Hg15 mi
6:49 AMN/APassing clouds.2 mphN/AN/A15 mi
6:00 AM18 °FPassing clouds.No wind86%30.32 "Hg15 mi
5:00 AM18 °FPassing clouds.No wind93%30.29 "Hg15 mi
4:00 AM18 °FClear.No wind93%30.28 "Hg15 mi
3:00 AM19 °FClear.3 mph86%30.27 "Hg15 mi
2:00 AM21 °FPassing clouds.5 mph80%30.27 "Hg15 mi
1:00 AM21 °FPassing clouds.5 mph86%30.28 "Hg15 mi
12:00 AM23 °FPassing clouds.5 mph80%30.29 "Hg15 mi
11:00 PM
Dec 19
25 °FPassing clouds.5 mph80%30.30 "Hg15 mi
10:00 PM25 °FPassing clouds.3 mph80%30.30 "Hg15 mi
9:00 PM25 °FPassing clouds.5 mph86%30.29 "Hg15 mi
8:00 PM27 °FPassing clouds.3 mph80%30.28 "Hg15 mi
7:55 PMN/APassing clouds.5 mphN/AN/A15 mi
7:00 PM28 °FMostly cloudy.7 mph80%30.28 "Hg15 mi
6:00 PM28 °FPassing clouds.7 mph74%30.25 "Hg15 mi
5:00 PM28 °FPassing clouds.12 mph74%30.23 "Hg15 mi
4:00 PM28 °FPartly sunny.9 mph69%30.22 "Hg15 mi
3:00 PM28 °FPartly sunny.13 mph69%30.21 "Hg15 mi
Weather by CustomWeather, © 2014

See weather overviewHow to use our weather pages